Home   Weather   Palikir   Past weeks

Flag for Micronesia Past Weather in Palikir, Pohnpei, Micronesia — Yesterday and Last 2 Weeks

Now
88 °F

More clouds than sun.


Feels Like: 102 °F
Forecast: 78 / 85 °F
Wind: 7 mph from Northeast

Location: Pohnpei

Current Time: Jul 24, 2017 at 2:01:24 pm

Latest Report: Jul 24, 2017 at 12:54 pm


Visibility: 15 mi

Pressure: 29.82 "Hg

Humidity: 73%

Dew Point: 78 °F

Location of PalikirLocation

Past Weather in Palikir — Graph

°F

Palikir Temperature Yesterday

Maximum temperature yesterday: 87 °F (at 9:52 am)
Minimum temperature yesterday: 76 °F (at 4:52 am)
Average temperature yesterday: 81 °F

High & Low Weather Summary for the Past Weeks

 TemperatureHumidityPressure
High89 °F (Jul 17, 11:52 am)100% (Jul 17, 12:28 am)29.91 "Hg (Jul 17, 12:28 am)
Low75 °F (Jul 9, 7:55 pm)66% (Jul 17, 12:50 pm)29.75 "Hg (Jul 20, 3:39 pm)
Average82 °F85%29.84 "Hg
* Reported Jul 9 12:54 pm — Jul 24 12:54 pm, Palikir. Weather by CustomWeather, © 2017

Note: Actual official high and low records may vary slightly from our data, if they occured in-between our weather recording intervals... More about our weather records

Advertising

Palikir Weather History for the Previous 24 Hours

Scroll right to see more
 ConditionsComfort  
Time TempWeatherWind HumidityBarometerVisibility
12:54 pm
Mon, Jul 24
88 °FMore clouds than sun.7 mph73%29.82 "Hg15 mi
11:52 am87 °FMore clouds than sun.9 mph78%29.84 "Hg15 mi
10:52 am86 °FMore clouds than sun.12 mph74%29.85 "Hg15 mi
9:52 am83 °FOvercast.6 mph79%29.86 "Hg15 mi
9:24 am77 °FMore clouds than sun.9 mph100%29.87 "Hg15 mi
8:53 am78 °FSprinkles. Mostly cloudy.10 mph97%29.87 "Hg5 mi
7:50 am77 °FSprinkles. Mostly cloudy.3 mph96%29.85 "Hg8 mi
7:07 am77 °FSprinkles. Mostly cloudy.5 mph94%29.84 "Hg10 mi
5:50 am76 °FPassing clouds.3 mph94%29.81 "Hg15 mi
4:50 am76 °FMostly cloudy.3 mph96%29.80 "Hg15 mi
3:50 am77 °FPassing clouds.3 mph95%29.80 "Hg15 mi
2:52 am77 °FMostly cloudy.3 mph95%29.80 "Hg15 mi
1:51 am77 °FPassing clouds.3 mph95%29.82 "Hg15 mi
12:52 am78 °FPassing clouds.3 mph94%29.84 "Hg15 mi
11:50 pm
Sun, Jul 23
78 °FPassing clouds.3 mph94%29.85 "Hg15 mi
10:50 pm79 °FMostly cloudy.3 mph91%29.86 "Hg15 mi
9:50 pm78 °FPassing clouds.3 mph91%29.86 "Hg15 mi
8:50 pm79 °FPassing clouds.3 mph91%29.85 "Hg15 mi
7:52 pm81 °FPassing clouds.3 mph79%29.83 "Hg15 mi
6:51 pm83 °FPassing clouds.6 mph77%29.80 "Hg15 mi
5:53 pm85 °FPartly sunny.7 mph77%29.78 "Hg15 mi
4:53 pm85 °FScattered clouds.6 mph77%29.77 "Hg15 mi
3:54 pm86 °FPartly sunny.7 mph75%29.75 "Hg15 mi
2:50 pm87 °FPartly sunny.6 mph73%29.76 "Hg15 mi
Weather by CustomWeather, © 2017

See weather overviewHow to use our weather pages